TimeEST,TemperatureF,Dew PointF,Humidity,Sea Level PressureIn,VisibilityMPH,Wind Direction,Wind SpeedMPH,Gust SpeedMPH,PrecipitationIn,Events,Conditions,WindDirDegrees,DateUTC
12:51 AM,64.0,55.0,73,29.97,8.0,WSW,19.6,28.8,N/A,,Overcast,240,2012-01-18 05:51:00
1:51 AM,60.1,54.0,80,29.95,7.0,WSW,12.7,20.7,N/A,,Mostly Cloudy,250,2012-01-18 06:51:00
2:51 AM,61.0,54.0,78,29.92,6.0,West,13.8,21.9,N/A,,Haze,260,2012-01-18 07:51:00
3:51 AM,59.0,55.0,87,29.90,7.0,WSW,15.0,26.5,0.01,Rain,Light Rain,250,2012-01-18 08:51:00
4:51 AM,60.1,55.9,86,29.88,8.0,WSW,19.6,33.4,0.04,Rain,Light Rain,240,2012-01-18 09:51:00
5:51 AM,60.1,55.9,86,29.89,8.0,WSW,18.4,27.6,0.01,,Partly Cloudy,250,2012-01-18 10:51:00
6:51 AM,60.1,55.0,83,29.89,7.0,WSW,16.1,26.5,N/A,,Scattered Clouds,250,2012-01-18 11:51:00
7:51 AM,59.0,55.0,87,29.91,5.0,WSW,13.8,21.9,0.00,Rain,Light Rain,250,2012-01-18 12:51:00
8:51 AM,59.0,55.9,90,29.94,4.0,West,11.5,17.3,0.00,,Overcast,260,2012-01-18 13:51:00
9:03 AM,59.0,55.4,88,29.94,5.0,West,10.4,16.1,N/A,,Overcast,270,2012-01-18 14:03:00
9:10 AM,57.2,53.6,88,29.94,3.0,WNW,8.1,16.1,0.00,Rain,Light Rain,290,2012-01-18 14:10:00
9:17 AM,55.4,53.6,94,29.95,2.0,WNW,8.1,16.1,0.02,Rain,Rain,290,2012-01-18 14:17:00
9:21 AM,55.4,51.8,88,29.95,1.8,WNW,8.1,-,0.03,Rain,Rain,300,2012-01-18 14:21:00
9:37 AM,55.4,51.8,88,29.95,2.0,WNW,5.8,-,0.07,Rain,Light Rain,290,2012-01-18 14:37:00
9:43 AM,55.4,51.8,88,29.96,1.2,WNW,4.6,-,0.08,Rain,Rain,290,2012-01-18 14:43:00
9:51 AM,55.0,52.0,89,29.96,0.8,WNW,5.8,-,0.18,Rain,Heavy Rain,290,2012-01-18 14:51:00
10:00 AM,55.4,51.8,88,29.96,1.0,WNW,4.6,-,0.04,Rain,Heavy Rain,290,2012-01-18 15:00:00
10:15 AM,55.4,53.6,94,29.96,1.0,WNW,9.2,-,0.12,Rain,Heavy Rain,290,2012-01-18 15:15:00
10:25 AM,48.2,44.6,87,29.97,2.0,NNE,13.8,29.9,0.15,Rain,Rain,20,2012-01-18 15:25:00
10:33 AM,48.2,44.6,87,29.97,3.0,NNE,17.3,29.9,0.17,Rain,Light Rain,30,2012-01-18 15:33:00
10:51 AM,46.9,44.1,90,29.98,8.0,NNE,16.1,29.9,0.17,Rain,Light Rain,30,2012-01-18 15:51:00
11:01 AM,46.4,44.6,93,29.98,9.0,NNE,13.8,28.8,0.00,,Overcast,30,2012-01-18 16:01:00
11:51 AM,46.9,41.0,80,29.98,10.0,NNE,12.7,25.3,0.00,,Overcast,30,2012-01-18 16:51:00
12:51 PM,46.9,37.9,71,29.96,10.0,NNE,15.0,25.3,N/A,,Overcast,30,2012-01-18 17:51:00
1:51 PM,48.0,37.0,66,29.97,10.0,NNE,11.5,26.5,N/A,,Overcast,30,2012-01-18 18:51:00
2:51 PM,46.9,34.0,61,29.99,10.0,NNE,10.4,27.6,N/A,,Overcast,20,2012-01-18 19:51:00
3:51 PM,46.9,33.1,59,30.01,10.0,NE,11.5,24.2,N/A,,Overcast,40,2012-01-18 20:51:00
4:51 PM,46.9,33.1,59,30.04,10.0,NNE,15.0,25.3,N/A,,Overcast,30,2012-01-18 21:51:00
5:51 PM,46.0,30.9,56,30.04,10.0,NE,12.7,24.2,N/A,,Scattered Clouds,40,2012-01-18 22:51:00
6:51 PM,45.0,30.9,58,30.06,10.0,NE,15.0,24.2,N/A,,Clear,40,2012-01-18 23:51:00
7:51 PM,45.0,30.0,56,30.07,10.0,NNE,13.8,21.9,N/A,,Clear,30,2012-01-19 00:51:00
8:51 PM,45.0,32.0,60,30.09,10.0,NE,9.2,21.9,N/A,,Clear,40,2012-01-19 01:51:00
9:51 PM,44.1,30.0,58,30.08,10.0,NNE,12.7,24.2,N/A,,Clear,30,2012-01-19 02:51:00
10:51 PM,43.0,28.9,58,30.06,10.0,NNE,11.5,19.6,N/A,,Clear,20,2012-01-19 03:51:00
11:51 PM,43.0,30.0,60,30.05,10.0,NNE,11.5,19.6,N/A,,Clear,20,2012-01-19 04:51:00